カタログに戻る

GOES 6

運用中気象GEO
NORAD 14050·PAYLOAD·🇺🇸 United States

打ち上げ Apr 28, 1983 から Cape Canaveral Space Force Station

Loading…

TLE

最新Source: Space-Track

元期: Sep 14, 2026, 09:49 UTC

1 14050U 83041A   26257.40966990  .00000060  00000-0  00000-0 0  9997
2 14050  10.0549 320.6868 0003169 261.9298 144.0438  1.00265370216917

AllMySatでGOES 6をリアルタイム追跡

Download on the App Store